Wind_Speed
16 12 7 2 3 5 6 7 4 6 8 6 6 7 11 15 18 20 19 22 25 24 24 25 26 26 26 27 27 27 28 29 28 21 7 7 10 19 11 12 11 6 6
22 17 11 6 2 3 2 5 6 5 6 5 8 9 9 11 14 17 17 18 22 25 26 27 28 27 28 25 27 28 28 26 28 29 19 12 5 9 3 13 13 14 10
28 23 16 10 7 6 8 2 6 4 4 6 9 6 5 6 10 11 13 15 17 20 23 24 28 27 29 29 27 28 29 27 23 21 19 10 11 30 6 16 21 19 12
30 25 19 15 11 10 10 5 3 4 7 6 3 4 6 9 11 12 12 13 13 16 18 22 23 25 24 25 27 27 27 26 25 23 19 16 18 21 18 23 25 22 16
35 29 25 19 14 13 8 6 4 4 6 6 6 7 8 9 7 8 7 9 6 12 15 14 12 14 16 20 23 24 23 24 24 23 23 23 22 21 23 30 32 25 20
38 31 26 22 19 17 11 6 7 3 2 3 3 3 4 4 6 11 13 13 14 16 16 15 17 18 18 17 17 19 20 21 22 22 22 21 22 24 24 27 29 30 26
41 36 33 30 25 20 12 9 8 6 8 8 9 7 6 8 13 16 16 17 17 17 18 19 21 23 24 24 21 19 16 17 19 19 20 20 24 26 27 28 30 30 32
43 40 35 33 27 21 15 10 12 10 12 13 11 8 10 13 16 16 16 18 19 21 23 24 24 24 23 22 22 22 20 19 18 18 18 18 20 21 22 23 29 34 32
43 42 37 33 26 22 17 13 17 16 14 11 10 12 13 16 16 16 18 20 21 23 25 26 26 26 26 25 25 24 24 24 24 24 23 22 21 21 20 22 23 24 29
42 40 36 31 25 22 18 20 20 19 16 14 15 14 16 17 17 18 20 22 23 24 26 26 27 28 28 27 27 26 25 24 25 26 28 29 29 29 28 28 27 25 25
42 38 32 28 28 25 25 25 23 20 16 13 12 14 17 17 18 20 21 23 24 26 27 27 27 28 29 29 26 24 24 24 27 28 28 29 29 30 31 31 32 33 34
38 34 31 31 30 28 29 25 19 15 11 9 11 13 14 16 19 20 22 23 25 27 27 27 27 27 25 25 26 26 23 27 26 25 28 29 32 34 34 29 30 32 31
34 31 31 32 32 29 24 19 13 9 6 8 10 11 13 16 18 20 22 23 26 28 27 26 25 26 26 28 26 23 24 25 28 30 30 32 33 34 29 31 34 31 29
33 34 33 31 27 22 17 11 6 5 9 11 11 13 15 15 18 20 21 24 28 27 23 24 27 28 30 26 23 25 30 31 32 32 31 33 32 31 35 35 29 28 29
34 34 31 25 20 15 9 5 6 9 9 11 13 14 15 17 18 20 22 26 29 21 22 25 24 25 28 23 26 30 33 36 38 36 34 35 35 35 32 26 26 28 32
31 27 23 19 13 8 5 5 6 8 11 13 14 14 16 19 19 23 27 31 24 20 23 22 21 26 24 25 25 29 37 34 35 38 38 37 35 28 25 31 34 35 34
26 22 17 13 9 5 5 7 8 11 13 15 15 17 18 20 24 27 30 28 21 21 22 21 26 27 24 24 28 31 33 33 33 32 32 30 29 32 31 31 32 34 34
23 20 15 10 5 4 6 9 12 14 15 15 16 17 20 23 26 29 30 25 22 23 24 27 27 25 22 28 29 31 33 32 31 28 28 27 32 31 28 31 32 34 35
20 16 11 6 2 5 9 11 14 12 13 15 17 20 24 26 26 28 29 24 24 24 26 23 28 24 29 28 29 31 32 31 29 28 28 29 32 29 29 33 32 34 34
16 12 8 2 2 5 7 11 11 13 16 17 20 22 23 24 26 26 24 24 23 25 28 36 25 28 30 28 29 31 30 31 31 30 32 32 30 31 35 31 32 34 33
10 5 4 4 2 4 8 11 13 15 15 17 19 19 19 20 19 21 23 19 27 31 28 25 29 30 27 30 31 31 29 29 31 31 34 32 30 31 37 28 27 25 28
10 7 5 2 3 8 12 14 16 17 21 23 24 24 24 26 27 22 24 30 31 27 28 30 29 30 27 29 33 30 29 29 30 32 31 31 31 35 35 27 24 23 23
8 4 1 3 7 12 16 18 19 22 24 26 28 29 29 24 23 29 33 29 25 27 30 29 29 31 33 32 30 31 33 31 30 29 29 27 33 35 28 23 23 25 24
3 1 6 9 14 16 19 21 22 25 27 29 29 24 22 26 31 33 26 26 30 29 27 30 33 33 33 32 34 33 31 31 31 27 25 32 32 27 24 23 23 24 22
2 7 11 13 15 17 20 23 25 26 29 26 21 22 28 32 30 28 30 31 30 28 26 28 30 31 32 33 30 29 30 28 25 30 33 32 28 25 23 22 22 24 25
7 10 12 14 17 20 21 22 25 26 21 21 25 29 29 28 29 31 34 35 35 31 26 25 25 29 29 28 28 28 30 29 32 30 26 29 25 22 21 23 21 24 25
Wind_Direction
188 187 186 165 60 83 71 71 123 102 99 102 100 83 55 39 30 27 32 30 27 27 26 25 22 20 17 18 16 16 19 17 11 18 72 134 90 39 44 50 46 39 32
182 189 197 206 198 168 137 77 111 135 109 90 114 96 69 49 29 22 20 16 15 11 10 8 6 4 5 3 7 7 7 14 16 13 11 359 244 309 349 355 11 10 1
190 193 202 209 203 185 182 151 118 138 93 154 121 128 90 29 12 32 22 9 3 5 1 359 356 355 351 353 356 359 360 357 4 13 18 356 340 336 336 339 336 348 345
200 201 204 202 202 184 186 198 153 99 67 73 89 65 49 38 40 18 12 360 357 0 358 351 352 350 353 351 350 351 352 351 351 352 357 354 343 341 325 320 331 336 339
203 205 205 205 193 190 202 207 188 122 54 40 38 32 33 26 9 337 329 330 327 323 328 334 325 337 341 341 340 339 340 340 339 340 339 339 338 335 327 322 327 326 330
206 209 205 198 191 192 202 211 206 157 242 5 341 309 285 278 297 310 311 313 313 314 312 306 309 317 318 319 316 313 316 321 320 320 320 319 322 325 322 319 323 324 323
205 202 196 194 193 198 197 183 173 175 221 237 248 237 254 291 307 314 314 315 317 320 318 313 309 309 309 309 311 309 310 305 302 302 303 305 309 312 313 308 307 308 314
203 200 197 194 196 196 190 192 164 196 207 216 219 245 278 299 314 318 321 322 323 322 320 320 318 316 314 310 309 309 311 309 308 309 304 305 303 300 299 307 309 304 303
200 198 195 196 194 192 193 184 187 194 195 214 246 272 290 305 312 315 317 317 318 319 319 321 322 321 321 322 320 316 311 309 310 307 307 309 307 305 303 301 302 314 314
193 193 192 191 193 191 188 184 192 197 213 231 257 277 297 307 311 314 315 318 320 320 322 323 325 327 328 329 330 331 326 322 316 311 306 304 307 306 305 305 305 303 304
191 189 187 190 187 189 190 191 195 209 219 239 268 295 303 307 313 315 320 325 326 327 329 331 333 333 333 335 335 336 335 333 329 328 327 322 320 320 319 315 313 310 306
187 182 185 184 184 186 182 187 195 209 224 258 290 300 302 307 314 321 324 324 327 330 332 333 334 338 340 338 339 340 335 327 327 327 326 324 324 323 324 319 323 320 315
173 174 172 174 171 174 180 186 192 211 255 296 305 309 313 316 319 319 319 322 328 330 329 333 339 340 339 335 341 332 335 330 326 326 323 322 325 323 318 317 318 315 309
168 167 162 163 166 170 174 179 202 267 295 302 313 322 326 320 315 312 314 321 329 329 329 333 332 334 337 337 328 325 323 322 320 322 326 324 322 316 314 313 308 305 301
159 160 159 160 162 165 176 215 270 290 307 321 324 325 319 312 308 308 318 324 329 327 325 326 327 327 329 328 322 321 319 323 324 320 316 314 312 310 311 304 303 302 301
159 160 160 162 169 180 224 274 298 313 318 320 324 316 310 309 307 313 321 325 327 323 322 318 316 323 324 320 317 316 321 321 317 315 313 312 314 316 302 300 297 297 298
161 164 168 176 192 223 275 298 316 323 328 333 327 315 309 306 310 317 322 325 324 317 313 309 315 320 321 317 313 324 324 321 322 321 320 321 312 310 312 309 304 298 293
165 165 170 179 203 274 304 318 325 332 338 336 319 310 308 313 319 322 322 321 312 313 310 310 315 313 315 314 321 329 329 325 322 321 319 318 320 320 321 323 310 301 296
165 166 175 193 227 293 310 324 336 328 319 320 319 317 319 321 322 321 319 312 309 308 312 313 315 307 313 314 325 327 328 326 320 319 320 324 325 326 329 327 316 309 299
157 158 168 199 330 348 332 322 318 317 322 325 324 326 325 323 322 321 316 311 304 310 315 316 305 306 310 313 322 326 325 324 322 317 323 326 324 328 334 324 316 311 314
143 140 91 65 45 319 310 313 317 320 320 313 311 311 310 310 313 323 317 309 316 317 317 309 307 311 309 315 321 322 322 321 320 316 317 319 323 327 333 326 321 311 327
110 108 117 91 339 319 317 322 320 318 317 316 315 315 315 315 317 315 311 317 321 316 311 312 313 315 313 313 317 320 321 317 314 312 312 315 323 328 326 320 321 326 326
130 136 187 317 318 317 319 317 322 320 318 317 318 319 319 320 319 321 324 326 323 325 323 323 320 315 314 316 321 322 320 316 316 314 312 318 324 324 318 321 325 331 331
126 338 309 312 314 318 322 325 321 316 316 318 320 321 321 323 326 326 328 329 330 330 323 318 317 317 319 320 323 322 321 320 316 314 319 322 324 321 320 325 330 330 341
354 319 320 324 325 325 324 320 318 319 322 322 323 326 327 329 327 326 327 329 329 329 321 318 318 318 318 319 319 317 316 320 318 319 318 320 319 319 324 329 330 332 332
314 320 330 331 330 326 324 324 325 326 328 324 325 332 332 328 326 327 327 327 331 327 325 325 323 323 319 318 317 316 316 309 310 313 313 318 317 318 323 328 330 332 336
Height
1611 1612 1612 1612 1613 1613 1613 1614 1614 1614 1614 1614 1614 1613 1612 1610 1609 1607 1605 1603 1601 1599 1596 1594 1592 1590 1587 1584 1581 1578 1574 1569 1565 1562 1562 1560 1559 1557 1556 1555 1553 1551 1550
1609 1610 1610 1610 1611 1612 1613 1614 1614 1615 1614 1613 1613 1613 1612 1610 1609 1607 1606 1605 1603 1600 1597 1595 1593 1590 1588 1586 1583 1579 1576 1574 1570 1566 1562 1559 1558 1555 1556 1554 1553 1552 1551
1602 1605 1607 1609 1610 1611 1612 1614 1614 1613 1614 1613 1613 1612 1611 1610 1609 1608 1605 1603 1601 1600 1598 1595 1593 1590 1587 1585 1583 1580 1577 1574 1573 1571 1570 1566 1564 1557 1554 1554 1552 1551 1549
1598 1601 1603 1606 1608 1609 1611 1612 1613 1614 1614 1614 1615 1613 1612 1610 1608 1607 1605 1604 1602 1600 1597 1595 1593 1590 1587 1584 1581 1579 1577 1575 1573 1571 1570 1569 1567 1561 1554 1551 1551 1550 1548
1591 1595 1598 1601 1604 1606 1608 1610 1612 1613 1615 1615 1614 1613 1611 1610 1609 1607 1605 1603 1601 1598 1596 1593 1591 1588 1586 1584 1581 1578 1576 1574 1572 1570 1567 1565 1563 1561 1558 1549 1546 1546 1546
1586 1590 1595 1599 1602 1605 1606 1608 1609 1611 1612 1613 1613 1612 1611 1609 1607 1606 1605 1603 1600 1598 1595 1593 1590 1587 1583 1580 1577 1575 1573 1572 1569 1567 1565 1562 1560 1557 1554 1550 1546 1543 1541
1582 1587 1591 1595 1599 1601 1604 1606 1607 1608 1610 1610 1610 1609 1608 1607 1606 1604 1602 1600 1597 1594 1592 1590 1587 1584 1581 1577 1574 1571 1569 1566 1564 1562 1560 1559 1557 1554 1552 1547 1542 1539 1536
1577 1581 1586 1590 1594 1598 1601 1603 1605 1606 1607 1608 1608 1608 1607 1605 1603 1602 1599 1597 1595 1592 1589 1586 1583 1580 1576 1573 1570 1567 1564 1563 1560 1557 1555 1553 1551 1549 1547 1543 1539 1532 1530
1572 1577 1583 1588 1592 1595 1597 1600 1601 1603 1604 1605 1605 1605 1604 1603 1600 1599 1597 1594 1591 1589 1585 1581 1578 1575 1572 1569 1565 1562 1560 1557 1555 1552 1550 1547 1546 1544 1541 1539 1536 1532 1525
1570 1576 1581 1586 1590 1593 1595 1596 1598 1600 1601 1601 1602 1602 1600 1599 1597 1595 1592 1590 1587 1584 1581 1577 1574 1571 1568 1565 1561 1557 1554 1552 1549 1546 1543 1541 1539 1537 1535 1533 1530 1528 1524
1567 1574 1581 1586 1589 1592 1592 1593 1595 1596 1597 1598 1598 1598 1597 1595 1593 1591 1588 1586 1583 1580 1577 1573 1570 1567 1564 1561 1557 1554 1551 1547 1544 1541 1538 1535 1532 1530 1528 1525 1523 1519 1517
1568 1575 1579 1583 1586 1588 1590 1592 1593 1594 1595 1595 1595 1594 1593 1591 1589 1587 1585 1583 1580 1578 1574 1570 1567 1564 1561 1558 1555 1551 1548 1544 1540 1536 1533 1530 1528 1525 1522 1519 1515 1512 1510
1569 1574 1578 1581 1584 1587 1588 1589 1591 1593 1593 1593 1591 1589 1588 1587 1586 1584 1582 1580 1577 1574 1570 1567 1563 1560 1558 1554 1551 1547 1544 1540 1537 1533 1529 1525 1522 1519 1515 1512 1509 1505 1502
1569 1572 1577 1581 1584 1587 1589 1590 1591 1591 1590 1589 1588 1586 1585 1584 1582 1581 1579 1577 1573 1569 1566 1563 1560 1557 1553 1550 1546 1543 1539 1535 1531 1527 1523 1520 1517 1513 1509 1505 1501 1498 1494
1569 1574 1576 1581 1584 1586 1589 1590 1588 1588 1587 1586 1585 1584 1583 1581 1579 1577 1575 1572 1568 1565 1562 1559 1556 1552 1549 1546 1542 1538 1534 1529 1525 1522 1517 1513 1509 1505 1502 1499 1495 1491 1487
1571 1576 1580 1582 1586 1587 1588 1588 1587 1586 1585 1583 1582 1581 1580 1578 1576 1573 1570 1567 1563 1560 1557 1554 1551 1548 1545 1541 1538 1533 1528 1524 1519 1513 1509 1505 1500 1497 1493 1490 1487 1484 1479
1573 1577 1581 1583 1586 1586 1586 1586 1585 1583 1582 1581 1580 1578 1577 1574 1571 1568 1565 1561 1558 1555 1552 1549 1545 1542 1538 1535 1531 1526 1521 1516 1511 1505 1501 1496 1493 1490 1485 1480 1476 1472 1469
1573 1577 1579 1583 1584 1585 1585 1584 1582 1581 1580 1578 1577 1574 1573 1570 1567 1564 1560 1557 1554 1550 1547 1543 1539 1535 1532 1529 1524 1519 1514 1509 1505 1500 1495 1490 1486 1481 1477 1472 1466 1461 1456
1574 1577 1579 1582 1582 1582 1582 1582 1580 1580 1578 1576 1574 1572 1569 1565 1562 1558 1555 1552 1548 1545 1541 1538 1534 1530 1526 1522 1518 1513 1507 1502 1497 1493 1489 1484 1479 1474 1470 1464 1458 1451 1444
1575 1577 1580 1581 1581 1581 1581 1580 1580 1579 1576 1574 1571 1568 1565 1561 1558 1554 1550 1547 1543 1539 1535 1531 1528 1524 1519 1515 1511 1506 1500 1495 1491 1485 1480 1476 1472 1467 1463 1458 1451 1443 1436
1576 1578 1579 1580 1580 1580 1578 1578 1577 1576 1573 1570 1567 1563 1560 1556 1552 1549 1545 1541 1537 1533 1528 1524 1521 1518 1513 1508 1504 1500 1494 1489 1483 1478 1473 1469 1465 1460 1455 1450 1444 1438 1431
1577 1578 1578 1578 1578 1577 1576 1575 1574 1572 1569 1565 1562 1558 1554 1550 1546 1542 1539 1535 1530 1526 1522 1517 1513 1510 1507 1502 1498 1493 1488 1483 1477 1472 1467 1461 1457 1452 1446 1442 1438 1432 1426
1577 1578 1578 1577 1577 1575 1573 1572 1570 1567 1564 1561 1557 1553 1548 1544 1541 1537 1533 1528 1525 1520 1515 1512 1507 1502 1498 1493 1489 1485 1479 1474 1469 1464 1459 1455 1450 1445 1440 1436 1431 1425 1420
1577 1577 1577 1576 1574 1573 1571 1570 1567 1563 1559 1555 1551 1547 1544 1540 1537 1532 1528 1523 1518 1514 1509 1505 1500 1494 1489 1485 1480 1475 1470 1465 1460 1455 1451 1448 1443 1438 1434 1429 1424 1420 1415
1576 1576 1575 1574 1573 1571 1569 1566 1562 1558 1555 1551 1548 1544 1540 1536 1531 1527 1522 1518 1514 1511 1505 1499 1495 1488 1482 1478 1474 1469 1463 1458 1453 1448 1444 1440 1435 1431 1427 1423 1420 1416 1411
1575 1574 1573 1573 1571 1568 1565 1562 1558 1554 1550 1547 1544 1540 1535 1530 1526 1520 1513 1510 1507 1502 1498 1493 1489 1483 1478 1472 1467 1462 1457 1452 1447 1442 1437 1433 1429 1425 1421 1418 1414 1411 1408